Regional Weather Roundup
Issued by NWS

Home | Current Version | Previous Version | Text Only | Print | Product List | Glossary Off
Versions: 1 2 3 4 5 6 7 8 9 10 11 12 13 14 15 16 17 18 19 20 21 22 23 24 25 26 27 28 29 30 31 32 33 34 35 36 37 38 39 40 41 42 43 44 45 46 47 48 49 50

000
ASUS43 KBIS 232302
RWRND

NORTH DAKOTA REGIONAL WEATHER ROUNDUP
NATIONAL WEATHER SERVICE BISMARCK ND
500 PM CST THU NOV 23 2017

NOTE: "FAIR" INDICATES FEW OR NO CLOUDS BELOW 12,000 FEET WITH NO
SIGNIFICANT WEATHER AND/OR OBSTRUCTIONS TO VISIBILITY.


NDZ001>003-009>011-017-240000-
NORTHWEST NORTH DAKOTA

CITY           SKY/WX    TMP DP  RH WIND       PRES   REMARKS
WILLISTON      CLEAR     63  37  38 SW10      29.46F
MINOT          CLEAR     57  40  52 SW14      29.41F
MINOT AFB      CLEAR     56  39  52 SW15      29.38F
$$

NDZ018>021-031>035-040>046-240000-
SOUTHWEST NORTH DAKOTA

CITY           SKY/WX    TMP DP  RH WIND       PRES   REMARKS
BISMARCK       CLOUDY    64  39  39 SW6       29.54F
DICKINSON      CLEAR     63  36  36 W16       29.55F
GARRISON         N/A     53  39  59 SW12      29.48F
HETTINGER ARPT CLEAR     66  33  29 W13       29.63F
$$

NDZ004>008-012>016-024-026-027-054-240000-
NORTHEAST NORTH DAKOTA

CITY           SKY/WX    TMP DP  RH WIND       PRES   REMARKS
GRAND FORKS    PTCLDY    37  31  78 S14       29.50F
GRND FRKS AFB  CLEAR     37  32  81 S13       29.48F
DEVILS LAKE    CLEAR     43  37  79 S8        29.45F
$$

NDZ022-023-025-028>030-036>039-047>053-240000-
SOUTHEAST NORTH DAKOTA

CITY           SKY/WX    TMP DP  RH WIND       PRES   REMARKS
FARGO          CLEAR     45  31  58 S14       29.57F
JAMESTOWN      CLEAR     54  40  59 SW9       29.52F
$$




USA.gov is the U.S. government's official web portal to all federal, state and local government web resources and services.